Weather in Nizhniy Syp

Russia / Perm Krai     56°58′09″N   56°34′16″E
temp.,
°C
wind,
m/s
gust,
m/s
humid.,
%
clouds,
%
prec.,
mm/h
press.,
hPa
HPBL,
m
4 march, thu
thu423:00−6sw249796 0.6 99899
02:00−7wnw3894100 0.1 997200
05:00−9w4893100 0.4 998252
08:00−12wsw379467 0.0 998174
11:00−8sw489366 0.0 999380
14:00−5sw5990100 0.1 997703
17:00−5ssw61091100 0.3 996650
20:00−6s61393100 0.2 993744
5 march, fri
fri523:00−5ssw81593100 1.5 989940
02:00−4wsw61385100 0.9 987998
05:00−6wsw9168999 1.3 989899
08:00−8wsw7158895 0.2 993629
11:00−8wsw6128993 0.2 996659
14:00−7wsw6988100 0.1 998740
17:00−7w5987100 0.1 1001686
20:00−12w379194 0.0 1004137
6 march, sat
sat623:00−14w389246 0.0 1006138
02:00−15wsw369516 0.0 1007123
05:00−15sw379639 0.0 1008158
08:00−14sw499489 0.1 1009285
11:00−11w598792 0.3 1009852
14:00−10w5882100 0.0 1010892
17:00−11w4684100 0.1 1010759
20:00−17w239469 0.0 101120
7 march, sun
sun723:00−20w119934 0.0 101220
02:00−22w111003 0.0 101120
05:00−22wsw1110034 0.0 101120
08:00−23w119923 0.0 101120
11:00−16wnw238813 0.0 1011295
14:00−13wnw238094 0.0 1010748
17:00−13w238596 0.1 1010706
20:00−18sw2295100 0.0 101120
8 march, mon
mon823:00−21ssw349892 0.1 101171
02:00−23s3510045 0.0 1010105
05:00−20s4109871 0.1 1008293
08:00−17s41095100 0.1 1005419
11:00−13s51192100 0.6 1002619
14:00−10s61291100 0.4 1001797
17:00−6wsw71080100 0.8 10011013
20:00−9ssw5129078 0.0 1003493